sat.trackr.live / text

‹ back to catalog

STARLINK-30947

NORAD 58473 · 2023-186A

PAYLOAD ACTIVE UNKNOWN

§ Identity

Operator
Country
US
Launch date
2023-12-03
Launch site
AFETR
Launch vehicle
Mass (kg)
RCS (m²)

Purposes: comms

External: N2YO · Heavens-Above · Gunter

§ Orbital elements

Epoch: 2026-05-24T23:44:33.715104Z

Period
94.27 min
Inclination
43.0036°
Eccentricity
0.0001889
Mean motion
15.27559137 rev/d
Perigee alt
481.8 km
Apogee alt
484.4 km
Semi-major
6,861.2 km
B*
8.1455e-5
RAAN
356.2998°
Arg perigee
273.5647°
Mean anomaly
86.4988°
Rev number
13,752

§ Raw data

STARLINK-309471 58473U 23186A   26144.98927911  .00001978  00000+0  81455-4 0  99912 58473  43.0036 356.2998 0001889 273.5647  86.4988 15.27559137137523

JSON: /api/v1/satellites/58473 · /tle

For live sub-satellite position, see the globe view (requires WebGL).

§ Visibility from observer

Set your observer location to see the next 7 days of passes ≥ 10°. The values pass through the URL so the page stays shareable.

No JS? Fill the form by hand. The geolocation button needs JavaScript.